TimeEST,TemperatureF,Dew PointF,Humidity,Sea Level PressureIn,VisibilityMPH,Wind Direction,Wind SpeedMPH,Gust SpeedMPH,PrecipitationIn,Events,Conditions,WindDirDegrees,DateUTC
12:03 AM,41.0,39.2,93,29.97,0.8,SSE,3.5,-,N/A,,Clear,150,2013-01-12 05:03:00
12:16 AM,42.8,41.0,93,29.97,1.2,SSE,3.5,-,N/A,,Clear,150,2013-01-12 05:16:00
12:32 AM,41.0,39.2,93,29.96,0.8,SE,3.5,-,N/A,,Clear,140,2013-01-12 05:32:00
12:53 AM,42.1,41.0,96,29.97,0.2,SSE,3.5,-,N/A,Fog,Fog,150,2013-01-12 05:53:00
1:53 AM,42.1,39.9,92,29.98,0.2,SE,3.5,-,N/A,Fog,Fog,140,2013-01-12 06:53:00
2:10 AM,44.6,42.8,93,29.98,1.2,SSE,4.6,-,N/A,,Clear,160,2013-01-12 07:10:00
2:18 AM,44.6,42.8,93,29.98,3.0,SSE,4.6,-,N/A,,Clear,160,2013-01-12 07:18:00
2:53 AM,45.0,44.1,97,29.99,2.0,South,3.5,-,N/A,,Clear,170,2013-01-12 07:53:00
2:56 AM,44.6,44.6,100,29.99,1.0,South,3.5,-,N/A,,Clear,180,2013-01-12 07:56:00
3:13 AM,46.4,44.6,93,29.99,0.5,South,3.5,-,N/A,Fog,Fog,170,2013-01-12 08:13:00
3:39 AM,44.6,44.6,100,29.99,0.5,Calm,Calm,-,N/A,Fog,Fog,0,2013-01-12 08:39:00
3:53 AM,46.9,46.0,97,30.00,1.0,SSE,3.5,-,N/A,,Mostly Cloudy,160,2013-01-12 08:53:00
3:56 AM,46.4,46.4,100,30.00,2.0,South,3.5,-,N/A,,Mostly Cloudy,170,2013-01-12 08:56:00
4:03 AM,48.2,48.2,100,30.00,6.0,South,4.6,-,N/A,,Mostly Cloudy,180,2013-01-12 09:03:00
4:24 AM,53.6,51.8,94,30.00,10.0,South,3.5,-,N/A,,Mostly Cloudy,190,2013-01-12 09:24:00
4:38 AM,53.6,51.8,94,30.00,10.0,Variable,4.6,-,N/A,,Scattered Clouds,0,2013-01-12 09:38:00
4:46 AM,53.6,51.8,94,30.00,10.0,SSW,4.6,-,N/A,,Mostly Cloudy,200,2013-01-12 09:46:00
4:53 AM,54.0,53.1,97,30.00,10.0,SSW,3.5,-,N/A,,Mostly Cloudy,200,2013-01-12 09:53:00
5:41 AM,53.6,51.8,94,30.00,10.0,SSW,4.6,-,N/A,,Mostly Cloudy,210,2013-01-12 10:41:00
5:53 AM,54.0,52.0,93,30.00,10.0,South,3.5,-,N/A,,Mostly Cloudy,170,2013-01-12 10:53:00
6:53 AM,55.0,52.0,89,30.03,10.0,SSW,5.8,-,N/A,,Overcast,200,2013-01-12 11:53:00
7:53 AM,48.9,48.0,97,30.06,4.0,SSE,5.8,-,N/A,,Overcast,160,2013-01-12 12:53:00
8:06 AM,48.2,48.2,100,30.05,2.0,SSE,4.6,-,N/A,,Overcast,160,2013-01-12 13:06:00
8:18 AM,48.2,48.2,100,30.05,3.0,SSE,6.9,-,N/A,,Mostly Cloudy,150,2013-01-12 13:18:00
8:53 AM,51.1,50.0,96,30.07,6.0,SSE,5.8,-,N/A,,Mostly Cloudy,150,2013-01-12 13:53:00
9:20 AM,51.8,51.8,100,30.07,7.0,SSE,5.8,-,N/A,,Scattered Clouds,150,2013-01-12 14:20:00
9:42 AM,55.4,53.6,94,30.06,8.0,SSE,5.8,-,N/A,,Mostly Cloudy,150,2013-01-12 14:42:00
9:53 AM,54.0,52.0,93,30.07,8.0,SSE,3.5,-,N/A,,Mostly Cloudy,160,2013-01-12 14:53:00
10:53 AM,61.0,55.9,83,30.06,10.0,SSW,6.9,-,N/A,,Mostly Cloudy,210,2013-01-12 15:53:00
11:08 AM,62.6,55.4,77,30.05,10.0,SSW,6.9,-,N/A,,Scattered Clouds,210,2013-01-12 16:08:00
11:53 AM,63.0,55.9,78,30.04,10.0,SW,9.2,-,N/A,,Scattered Clouds,220,2013-01-12 16:53:00
12:04 PM,62.6,55.4,77,30.03,10.0,SW,8.1,-,N/A,,Mostly Cloudy,220,2013-01-12 17:04:00
12:20 PM,62.6,55.4,77,30.01,10.0,SW,5.8,-,N/A,,Scattered Clouds,220,2013-01-12 17:20:00
12:53 PM,64.0,55.9,75,30.02,10.0,SW,5.8,-,N/A,,Partly Cloudy,220,2013-01-12 17:53:00
1:14 PM,64.4,57.2,77,30.02,10.0,SW,5.8,-,N/A,,Mostly Cloudy,220,2013-01-12 18:14:00
1:53 PM,64.0,55.0,73,30.03,10.0,WSW,6.9,-,N/A,,Overcast,240,2013-01-12 18:53:00
2:19 PM,64.4,55.4,73,30.02,10.0,SSW,4.6,-,N/A,,Overcast,200,2013-01-12 19:19:00
2:53 PM,64.9,55.0,70,30.02,10.0,SW,4.6,-,N/A,,Partly Cloudy,230,2013-01-12 19:53:00
3:53 PM,63.0,57.0,81,30.02,10.0,South,6.9,-,N/A,,Overcast,170,2013-01-12 20:53:00
4:53 PM,61.0,57.9,90,30.01,6.0,SSE,6.9,-,N/A,,Overcast,160,2013-01-12 21:53:00
5:19 PM,60.8,57.2,88,30.00,5.0,SSE,4.6,-,N/A,,Overcast,150,2013-01-12 22:19:00
5:53 PM,60.1,57.9,93,29.99,3.0,SSE,3.5,-,N/A,,Overcast,150,2013-01-12 22:53:00
6:06 PM,60.8,57.2,88,29.99,2.5,SE,3.5,-,0.02,Rain,Light Rain,130,2013-01-12 23:06:00
6:36 PM,60.8,57.2,88,29.98,3.0,SSE,4.6,-,0.02,,Overcast,150,2013-01-12 23:36:00
6:53 PM,60.1,59.0,96,29.98,2.5,South,4.6,-,0.02,Rain,Light Rain,170,2013-01-12 23:53:00
7:01 PM,60.8,57.2,88,29.98,1.8,SSE,6.9,-,0.01,Rain,Light Rain,150,2013-01-13 00:01:00
7:09 PM,60.8,59.0,94,29.98,1.8,SSE,4.6,-,0.02,Rain,Light Rain,150,2013-01-13 00:09:00
7:23 PM,60.8,59.0,94,29.97,2.0,SE,6.9,-,0.03,Rain,Light Rain,140,2013-01-13 00:23:00
7:30 PM,60.8,59.0,94,29.95,3.0,SSE,6.9,-,0.03,Rain,Light Rain,150,2013-01-13 00:30:00
7:37 PM,60.8,59.0,94,29.96,4.0,South,3.5,-,0.03,,Overcast,190,2013-01-13 00:37:00
7:53 PM,60.1,57.9,93,29.96,3.0,Calm,Calm,-,0.03,,Overcast,0,2013-01-13 00:53:00
8:00 PM,60.8,57.2,88,29.96,2.5,Calm,Calm,-,N/A,,Overcast,0,2013-01-13 01:00:00
8:13 PM,59.0,57.2,94,29.95,1.8,SE,5.8,-,N/A,,Overcast,140,2013-01-13 01:13:00
8:18 PM,59.0,57.2,94,29.95,2.5,SE,5.8,-,N/A,,Overcast,140,2013-01-13 01:18:00
8:26 PM,60.8,59.0,94,29.95,4.0,SE,5.8,-,N/A,,Overcast,140,2013-01-13 01:26:00
8:53 PM,60.1,59.0,96,29.94,6.0,SSE,6.9,-,N/A,,Overcast,150,2013-01-13 01:53:00
9:53 PM,62.1,59.0,90,29.91,8.0,SSE,8.1,-,N/A,,Overcast,150,2013-01-13 02:53:00
10:46 PM,60.8,59.0,94,29.89,7.0,SE,6.9,-,N/A,,Overcast,140,2013-01-13 03:46:00
10:53 PM,60.1,59.0,96,29.89,7.0,SSE,5.8,-,N/A,,Overcast,160,2013-01-13 03:53:00
11:53 PM,64.0,59.0,84,29.88,10.0,South,11.5,-,N/A,,Overcast,190,2013-01-13 04:53:00